Regional Weather Roundup
Issued by NWS

Home | Current Version | Previous Version | Text Only | Print | Product List | Glossary Off
Versions: 1 2 3 4 5 6 7 8 9 10 11 12 13 14 15 16 17 18 19 20 21 22 23 24 25 26 27 28 29 30 31 32 33 34 35 36 37 38 39 40 41 42 43 44 45 46 47 48 49 50

000
ASUS43 KOAX 271302
RWRNE

WEATHER ROUNDUP FOR NEBRASKA
NATIONAL WEATHER SERVICE OMAHA NE
700 AM CST THU NOV 27 2014

NOTES: SATELLITE DATA IS BEING USED TO AUGMENT CLOUD COVER ABOVE
       12000 FEET.
       "FAIR" INDICATES FEW OR NO CLOUDS BELOW 12,000 FEET WITH NO
       SIGNIFICANT WEATHER AND/OR OBSTRUCTIONS TO VISIBILITY.

  * THESE STATIONS DO NOT REPORT WEATHER SUCH AS RAIN...SNOW OR FOG.

NEZ001>004-019>022-054>056-271400-
NEBRASKA PANHANDLE

CITY           SKY/WX    TMP DP  RH WIND       PRES   REMARKS
SCOTTSBLUFF    CLOUDY    12  10  92 VRB3      30.15F
ALLIANCE       PTCLDY    16  14  92 SE5       30.14F WCI   9
CHADRON        PTCLDY   N/A N/A N/A W3        30.13F
SIDNEY         PTCLDY    23  19  85 SW14      30.17F WCI  11
$$

NEZ057>060-069>072-079>082-271400-
SOUTHWEST NEBRASKA

CITY           SKY/WX    TMP DP  RH WIND       PRES   REMARKS
NORTH PLATTE   CLEAR     18  15  88 SE6       30.28F WCI  10
IMPERIAL       CLEAR     21  17  84 S8        30.24F WCI  11
LEXINGTON      PTCLDY    20  16  86 S10       30.34F WCI   9
MCCOOK         CLEAR     19  16  88 E8        30.33R WCI   9
$$

NEZ005>010-023>029-035>040-094-271400-
NORTH CENTRAL NEBRASKA

CITY           SKY/WX    TMP DP  RH WIND       PRES   REMARKS
VALENTINE      MOCLDY    21  16  81 E10       30.26F WCI  10
AINSWORTH      CLOUDY    20  15  81 SE15      30.29F WCI   6
BROKEN BOW     PTCLDY    20  15  81 SE8       30.34F WCI  10
ORD            CLOUDY    18  12  77 E8        30.40R WCI   8
$$

NEZ041-046>049-061>064-073>077-083>087-271400-
SOUTH CENTRAL NEBRASKA

CITY           SKY/WX    TMP DP  RH WIND       PRES   REMARKS
GRAND ISLAND   CLEAR     16  11  80 SE3       30.44S
AURORA         MOCLDY    18  10  72 SE3       30.45R
HASTINGS       PTCLDY    18  12  77 S3        30.42S
KEARNEY *      PTCLDY    18  12  79 E5        30.42R WCI  11
YORK           CLOUDY    18  10  73 E7        30.46S WCI   8
$$

NEZ011>018-030>034-042>045-271400-
NORTHEAST NEBRASKA

CITY           SKY/WX    TMP DP  RH WIND       PRES   REMARKS
NORFOLK        CLOUDY    16   8  71 E3        30.46R
BLAIR          CLOUDY    14   8  77 N7        30.48S WCI   4
COLUMBUS *     CLOUDY    18   7  62 E7        30.49R WCI   8
TEKAMAH        CLEAR     11   2  67 NE9       30.52S WCI  -2
$$

NEZ050>053-065>068-078-088>093-271400-
SOUTHEAST NEBRASKA

CITY           SKY/WX    TMP DP  RH WIND       PRES   REMARKS
LINCOLN        CLOUDY    17  10  74 CALM      30.51R
OMAHA EPPLEY   PTCLDY    16  11  80 N8        30.52R WCI   5
FALLS CITY     CLOUDY    20  15  81 NE6       30.51R WCI  12
NEBRASKA CITY  CLOUDY    17  12  80 E5        30.48S WCI  10
PLATTSMOUTH    CLOUDY    17  11  78 NE7       30.49R WCI   7
$$

NEZ044-045-051>053-067-271400-
OMAHA AREA

CITY           SKY/WX    TMP DP  RH WIND       PRES   REMARKS
OMAHA EPPLEY   PTCLDY    16  11  80 N8        30.52R WCI   5
BLAIR          CLOUDY    14   8  77 N7        30.48S WCI   4
OFFUTT AFB     CLOUDY    17  11  75 N8        30.50S WCI   7
PLATTSMOUTH    CLOUDY    17  11  78 NE7       30.49R WCI   7
WAHOO          CLOUDY    17  11  76 NE7       30.49R WCI   8
$$



USA.gov is the U.S. government's official web portal to all federal, state and local government web resources and services.